+ View the NASA Portal
+ Center for Near-Earth Object Studies
IMPORTANT:
The SSD Announcement email list is now available. Major changes are coming in the near future, including possible hostname and/or URL changes. To be notified of such changes, subscribe to this email list.
Please visit
this page
for more details.
Don't show this message again
JPL Small-Body Database Browser
Search:
[
help
]
277819 (2006 GL19)
Classification:
Main-belt Asteroid
SPK-ID:
2277819
[
Ephemeris
|
Orbit Diagram
|
Orbital Elements
|
Mission Design
|
Physical Parameters
|
Discovery Circumstances
|
Close-Approach Data
]
[ show orbit diagram ]
Orbital Elements at Epoch 2458600.5 (2019-Apr-27.0) TDB
Reference:
JPL 10
(heliocentric ecliptic J2000)
Element
Value
Uncertainty (1-sigma)
Units
e
.02936413495979422
6.7041e-08
a
2.921969323517088
4.2065e-08
au
q
2.836168221952954
1.9051e-07
au
i
3.201767538113845
6.9163e-06
deg
node
87.52240390767059
0.00012861
deg
peri
117.7395820471449
0.00017975
deg
M
222.0185217786755
0.00012822
deg
t
p
2459299.746333212043
(2021-Mar-26.24633321)
0.00065681
TDB
period
1824.365727931676
4.99
3.9396e-05
1.079e-07
d
yr
n
.1973288548936621
4.2612e-09
deg/d
Q
3.007770425081223
4.33e-08
au
Orbit Determination Parameters
# obs. used (total)
129
data-arc span
6349 days (17.38 yr)
first obs. used
2001-05-29
last obs. used
2018-10-16
planetary ephem.
DE431
SB-pert. ephem.
SB431-N16
condition code
0
norm. resid. RMS
.67242
source
ORB
producer
Otto Matic
solution date
2018-Oct-31 04:26:23
Additional Information
Earth MOID
= 1.83263 au
Jupiter MOID
= 1.95308 au
T_jup
= 3.277
[ show covariance matrix ]
[
Ephemeris
|
Orbit Diagram
|
Orbital Elements
|
Mission Design
|
Physical Parameters
|
Discovery Circumstances
|
Close-Approach Data
]
Physical Parameter Table
Parameter
Symbol
Value
Units
Sigma
Reference
Notes
absolute magnitude
H
16.9
n/a
MPO418478
277819 (2006 GL19)
Discovered 2006-Apr-02 by Spacewatch at Kitt Peak
Reference:
20110517/Numbers.arc
Last Updated:
2011-05-20
[ show close-approach data ]
[
Ephemeris
|
Orbit Diagram
|
Orbital Elements
|
Mission Design
|
Physical Parameters
|
Discovery Circumstances
|
Close-Approach Data
]
2019-Dec-13 08:08 UT
(server date/time)
Site Manager:
Ryan S. Park
Webmaster
:
Alan B. Chamberlin